Location: Montichiari
(45.4167°N, 10.3833°E)
Time: 11:40:12
(UTC+00:00)

Daily predictions for brighter satellites

Satellite Brightness Start Highest point End
(mag) Time Altitude Azimuth Time Altitude Azimuth Time Altitude Azimuth
Envisat 4.4 18:01:01 10° ESE 18:04:32 19° ENE 18:08:05 10° NNE
Resurs 1-3 4.1 18:02:01 10° SE 18:06:05 39° ENE 18:10:10 10° N
Cosmos 2058 Rocket 4.5 18:02:32 10° SSW 18:06:51 46° WNW 18:11:13 10° N
COSMO-SKYMED 1 4.1 18:03:45 10° N 18:07:52 42° WNW 18:11:57 10° SW
Lacrosse 5 2.2 18:07:07 10° SSW 18:11:55 44° SE 18:16:44 10° ENE
RESURS DK-1 2.3 18:11:01 10° NNW 18:15:11 82° ENE 18:19:19 10° SSE
In-Cosmos 22 4.3 18:11:05 10° N 18:16:17 52° ENE 18:21:25 10° SSE
Meteor 1-22 Rocket 4.4 18:11:13 10° S 18:16:58 65° E 18:22:57 10° NNE
Cosmos 1844 Rocket 3.0 18:15:29 10° SSW 18:21:07 74° WNW 18:26:47 10° NNE
Cosmos 2344 3.7 18:14:40 10° SSW 18:22:13 68° ESE 18:30:48 10° NE
CZ-4B DEB 4.3 18:20:54 12° ESE 18:22:46 18° ENE 18:24:56 10° NNE
CZ-2C R/B 1.1 18:21:48 10° N 18:24:03 45° E 18:25:42 10° SSE
Cosmos 1821 Rocket 4.1 18:18:03 10° S 18:24:27 89° W 18:30:50 10° N
Cosmos 1674 4.1 18:22:22 10° NNE 18:25:13 20° ENE 18:27:30 13° ESE
Okean 3 Rocket 3.7 18:24:27 10° N 18:28:46 54° ENE 18:33:05 10° SSE
Cosmos 1833 Rocket 3.4 18:24:32 10° NNW 18:29:44 36° NE 18:34:16 13° ESE
Cosmos 1937 Rocket 3.7 18:26:35 10° SSW 18:31:50 79° WNW 18:37:11 10° NNE
CZ-2D R/B 3.3 18:28:53 10° SSE 18:32:41 61° ENE 18:36:33 10° N
SeaSat 1 3.2 18:29:04 10° SSE 18:33:54 56° WSW 18:38:46 10° NW
Cosmos 2278 Rocket 2.2 18:29:22 10° SSW 18:34:58 65° ESE 18:40:37 10° NNE
FENGYUN 3A 4.1 18:31:25 10° S 18:36:48 67° WSW 18:42:11 10° NNW
Cosmos 1818 3.6 18:32:00 10° NNW 18:37:27 64° NE 18:42:17 13° SE
Cosmos 1805 3.5 18:34:14 10° SSE 18:37:57 46° E 18:41:43 10° NNE
SAR-Lupe-4 3.7 18:38:32 10° SSE 18:42:01 53° ENE 18:45:32 10° N
YAOGAN 6 4.5 18:41:54 15° ENE 18:42:25 15° ENE 18:44:35 10° NNE
Cosmos 1605 Rocket 4.0 18:36:14 10° S 18:42:26 71° E 18:48:47 10° NNE
Cosmos 1437 Rocket 4.2 18:40:29 10° SSW 18:44:19 43° WNW 18:48:15 10° N
Cosmos 1269 Rocket 4.2 18:42:34 10° NNW 18:47:45 53° ENE 18:52:02 15° SE
Cosmos 1812 Rocket 4.4 18:43:39 10° SSW 18:47:58 54° WNW 18:52:17 10° N
Cosmos 2297 4.1 18:44:10 10° S 18:49:26 40° ESE 18:54:45 10° NE
ATLAS 5 CENTAUR R/B 2.9 18:48:12 10° SSE 18:51:43 21° ESE 18:52:18 21° ESE
Cosmos 1470 3.8 18:51:24 22° ESE 18:52:45 26° E 18:56:06 10° NNE
USA 215 3.8 18:47:00 10° ENE 18:52:57 36° SE 18:58:50 10° SSW
Cosmos 1340 Rocket 3.8 18:49:47 10° N 18:53:18 28° ENE 18:54:26 24° E
Cosmos 1076 Rocket 3.4 18:49:16 10° N 18:53:31 64° E 18:57:43 10° SSE
Cosmos 2123 Rocket 4.3 18:47:14 10° NNW 18:53:33 71° W 18:59:47 10° S
GP-B 3.3 18:50:40 10° SSE 18:54:56 49° E 18:59:14 10° N
Cosmos 468 4.5 18:50:16 10° NNW 18:55:32 87° ENE 19:00:47 10° SSE
Tiangong 1 3.3 18:54:05 10° WSW 18:55:56 15° SSW 18:57:19 12° S
SL-27 R/B 4.3 18:52:51 10° NW 18:56:04 32° WSW 18:59:18 10° SSW
Resurs 01 Rocket 2.5 18:54:34 10° S 18:58:52 52° W 19:03:12 10° NNW
Helios 1B rocket 2.4 18:56:28 10° NNE 19:00:33 57° ESE 19:04:37 10° S
Cosmos 2098 Rocket 4.4 18:53:46 10° S 19:00:54 70° E 19:08:29 10° NNE
Abrixas 2.7 18:58:22 10° WNW 19:01:09 54° SSW 19:01:56 37° SSE
SAR-Lupe-1 3.9 18:58:40 14° SSE 19:01:38 80° ENE 19:05:14 10° NNW
Cosmos 1766 Rocket 3.6 18:57:43 10° N 19:02:09 58° ENE 19:05:25 18° SSE
Meteor 1-29 3.2 18:59:17 10° NNE 19:02:39 46° E 19:05:43 12° S
Cosmos 2082 Rocket 2.2 18:57:17 10° NNW 19:02:59 69° ENE 19:07:00 20° SE
COSMOS 2487 2.5 19:02:55 10° NNW 19:06:29 62° ENE 19:07:47 35° SE
Cosmos 1733 3.7 19:07:49 34° ESE 19:08:27 36° E 19:12:03 10° NNE
Meteor 1-4 Rocket 2.3 19:05:10 10° S 19:08:38 83° E 19:12:08 10° NNE
CZ-3B DEB 2.8 18:58:23 10° WSW 19:08:43 72° NW 19:13:17 10° NE
OE (NEXTSAT) 4.4 19:05:13 10° WSW 19:08:46 60° SSE 19:09:45 41° ESE
USA 186 2.0 19:08:53 27° SSW 19:09:45 44° W 19:11:55 10° NNW
Helios 1A 3.1 19:07:09 10° S 19:11:19 76° WSW 19:15:31 10° NNW
Lacrosse 4 Rocket 3.8 19:09:23 10° WSW 19:12:40 23° NW 19:15:59 10° N
Cosmos 372 Rocket 4.0 19:08:52 10° S 19:13:50 53° ESE 19:18:51 10° NNE
Cosmos 1758 3.4 19:09:51 10° SSW 19:13:50 79° W 19:17:51 10° N
Cosmos 1153 Rocket 4.5 19:07:42 10° S 19:14:07 84° E 19:20:33 10° N
Cosmos 2061 Rocket 4.3 19:08:04 10° SSE 19:14:08 47° E 19:20:16 10° NNE
Cosmos 1544 3.6 19:10:43 10° SSW 19:14:19 62° W 19:17:59 10° N
Cosmos 1867 3.6 19:09:31 10° SSW 19:14:49 54° ESE 19:20:09 10° NE
Timation 2 Rocket 3.9 19:09:58 10° NNW 19:16:22 73° ENE 19:20:03 26° SE
Cosmos-2242 2.9 19:17:17 18° S 19:20:21 59° E 19:24:34 10° NNE
Cosmos 158 Rocket 3.9 19:17:10 10° NNW 19:22:17 86° ENE 19:25:15 26° SSE
Cosmos 1953 2.6 19:18:44 10° SSW 19:22:47 68° W 19:26:51 10° N
SL-14 R/B 4.4 19:21:13 10° NNE 19:23:50 27° NE 19:23:50 27° NE
Cosmos 1939 Rocket 2.8 19:23:11 34° SSE 19:24:56 79° ENE 19:29:06 10° N
ARGOS 4.1 19:24:24 27° ENE 19:25:06 28° ENE 19:29:36 10° N
USA 267 3.8 19:23:27 24° E 19:27:07 47° NNE 19:33:19 10° NW
BREEZE-M DEB (TANK) 3.6 19:29:36 10° WSW 19:32:56 87° SSE 19:44:07 10° ENE
Cosmos 1743 Rocket 3.6 19:29:28 10° N 19:33:52 60° E 19:34:28 54° ESE
Cosmos 494 Rocket 4.3 19:30:50 10° N 19:35:44 43° ENE 19:36:23 41° E
Cosmos 1500 Rocket 3.9 19:31:55 10° N 19:35:50 44° ENE 19:35:50 44° ENE
H-2A R/B 4.3 19:38:22 12° NE 19:38:22 12° NE 19:38:59 10° NNE
Cosmos 1459 Rocket 3.9 19:32:14 10° S 19:38:30 77° E 19:44:41 10° N
BREEZE-M DEB (TANK) 2.9 19:36:36 10° WNW 19:38:23 45° NNW 19:38:23 45° NNW
H-2A R/B 3.4 19:41:34 25° ENE 19:41:34 25° ENE 19:45:35 10° N
Cosmos 1271 Rocket 2.7 19:40:33 41° S 19:41:53 88° WNW 19:45:57 10° N
Cosmos 2173 Rocket 3.9 19:36:34 10° S 19:42:43 81° E 19:49:00 10° N
Envisat 3.4 19:39:26 19° S 19:43:04 63° WSW 19:48:08 10° NNW
Lacrosse 5 rocket 1.1 19:39:56 10° NW 19:43:45 70° NNE 19:43:45 70° NNE
Cosmos 1125 Rocket 4.1 19:47:04 10° SW 19:52:09 55° WNW 19:57:18 10° NNE
Lacrosse 5 2.9 19:50:04 10° WSW 19:54:56 45° NNW 19:59:06 14° NE
Cosmos 1356 Rocket 3.8 19:52:55 10° N 19:56:15 53° NNE 19:56:15 53° NNE
SPOT 5 3.1 19:58:46 58° E 19:58:58 58° ENE 20:04:13 10° N
Cosmos 1674 4.5 19:57:34 10° NNW 20:00:52 29° W 20:02:28 21° SW
ERS-1 Rocket 3.1 20:03:25 51° SSW 20:04:36 71° WSW 20:09:40 10° NNW
Cosmos 1842 Rocket 4.2 20:10:32 49° N 20:10:32 49° N 20:13:47 10° N
Cosmos 1833 Rocket 3.8 20:08:30 10° NW 20:13:40 38° WSW 20:16:01 26° SSW
Cosmos 2016 Rocket 4.0 20:10:47 28° SSW 20:14:15 81° W 20:20:27 10° N
YAOGAN 6 4.0 20:16:21 39° WNW 20:16:21 39° WNW 20:19:13 10° NNW
YAOGAN 11 4.4 20:16:21 70° NW 20:16:21 70° NW 20:20:31 10° NNW
NOAA 11 4.0 20:16:37 79° S 20:16:59 89° WSW 20:22:32 10° NNW
Meteor 2-17 Rocket 4.5 20:14:06 31° SSW 20:17:14 79° W 20:23:25 10° N
Cosmos 2278 Rocket 4.4 20:14:58 10° WSW 20:19:33 24° NW 20:24:08 10° N
MetOp-B 4.0 20:20:37 78° SW 20:20:52 81° WSW 20:26:15 10° NNW
Cosmos 1725 Rocket 3.8 20:20:50 72° SSE 20:21:27 81° E 20:27:40 10° N
Terra 3.6 20:24:59 22° NNE 20:24:59 22° NNE 20:27:10 10° N
SPOT 1/Viking Rocket 3.9 20:25:39 56° NNE 20:25:39 56° NNE 20:29:58 10° N
Cosmos 2251 Rocket 3.6 20:19:43 10° NNW 20:24:58 75° W 20:24:58 75° W
Cosmos 2151 4.0 20:21:05 10° NNW 20:24:03 43° NNW 20:24:03 43° NNW
Cosmos 2058 4.3 20:22:39 10° N 20:25:05 34° N 20:25:05 34° N
Tsikada Rocket 3.9 20:27:53 10° N 20:34:06 79° W 20:34:38 73° SSW
BREEZE-M DEB (TANK) 4.0 20:30:35 10° WSW 20:35:19 77° SSE 20:55:41 10° ENE
ATLAS 5 CENTAUR R/B 2.8 20:31:10 10° SW 20:39:58 16° NNE 20:41:03 10° NNE
USA 215 3.3 20:29:44 10° NE 20:36:17 75° NNW 20:42:48 10° WSW
Meteor 1-11 4.5 20:31:22 10° NNW 20:36:52 61° W 20:37:06 61° WSW
USA 245 4.3 20:38:42 75° NNW 20:38:42 75° NNW 20:44:13 10° NNW
Cosmos 2082 Rocket 4.3 20:42:34 10° NW 20:46:27 19° W 20:48:53 15° SW
ARGOS 4.1 21:05:55 42° WNW 21:05:55 42° WNW 21:10:17 10° NNW
USA 267 3.4 21:10:47 65° W 21:10:47 65° W 21:16:29 10° NW
H-2A R/B 3.4 21:22:12 37° NW 21:22:12 37° NW 21:25:40 10° NNW
CZ-3B DEB 3.9 21:16:40 10° WNW 21:20:29 22° NNW 21:20:29 22° NNW
Lacrosse 5 4.1 21:34:59 10° WNW 21:38:21 22° NNW 21:38:21 22° NNW
Cosmos 2369 Rocket 4.2 21:45:41 22° NNE 21:45:41 22° NNE 21:47:36 10° NNE
Cosmos 2227 Rocket 4.4 21:50:25 10° N 21:52:47 18° NNE 21:52:47 18° NNE
Terra 4.5 22:03:52 16° NW 22:03:52 16° NW 22:05:01 10° NNW
USA 215 4.4 22:12:51 10° NE 22:18:46 38° NNW 22:24:40 10° W
CZ-4C R/B 4.4 23:29:22 23° N 23:29:22 23° N 23:33:13 10° NNE
